SL-12 R/B(2), 25927

Orbit data source: Space-Track

SL-12 R/B(2), 25927 is space debris in HEO originally from a launch on Sun, 26 Sep 1999 UTC launched from the Tyuratam Missile And Space Complex (TTMTR). Debris objects in space refer to the collection of defunct objects orbiting the Earth. Examples of debris include non-operational satellites, rocket bodies, and fragments generated from explosions, collisions, or faulty payload assembly.

Loading next visibility...
Identifier
25927, 1999-053D
Orbit
HEO
Country
Flag of CISCIS
Related business
Manufacturer
RKKE
Mission
Spacecraft
Bus & Motor
BLOK DM2, Unknown motor
Mass
2,560 kg wet, 2,560 kg dry
Launch date (UTC)
1999-09-26 (27 years ago)
Launch vehicle
Unknown
Launch site
Tyuratam Missile And Space Complex (TTMTR)
Object type
Payload
Rocket body
Debris
Shape & HBR
Cyl + 1 Nozzle, 3.7 m
Radar Cross Section
23.684 m², Large (>1 m²)

Expand to show TLE details & history
Last TLE update: 2 days ago

TLE from 2 days ago
0 SL-12 R/B(2)
1 25927U 99053D   26254.37528962 -.00000091  00000-0  00000-0 0  9993
2 25927  17.5519 304.2887 5334449 299.7812  34.4379  1.89348794186061
Epoch: 2026-09-11T09:00Z
TLE epoch observation values (Epoch: 2026-09-11T09:00:25.023Z)
Latitude
9.62138°
Longitude
-148.78843°
Altitude
14,156.355 km
Speed
4.938 km/s
True Right ascension
22h 26m 51s
True Declination
9° 36' 06"
Sunlit
Object was in daylight at epoch
Visualization orbit readout
Latitude
Unknown
Longitude
Unknown
Altitude
Unknown
Speed
Unknown
Apparent Right ascension
Unknown
Apparent Declination
Unknown
Sunlit
N/A
Visualization observer readout
Local Sidereal Time
17:32:26
Azimuth
Unknown
Elevation
Unknown
Doppler factor
Unknown
Orbital elements
Apogee altitude
35,946.94 km
Perigee altitude
6,499.392 km
Semi-major axis
27,601.303 km
Eccentricity
0.53344
Inclination
17.5519°
RAAN
304.2887°
Arg. of periapsis
299.7812°
True anomaly
94.02216°
Mean anomaly
34.4379°
Eccentric anomaly
61.22888°
Mean motion
0.47331 °/min
Orbital period
760.6 mins
BSTAR
0
Loading maneuver chart data...
Computing Atmospheric mass density...
Loading historical data...
Loading historical data...
Loading historical data...
Loading historical data...
Loading historical data...
Loading historical data...
Loading historical data...
Other satellites on launch #53 in the year 1999 (1999-09-26 UTC)

Documentation

Showing up to 5 results
|